Luray Caverns AP, Luray, VA, VA

9:25 PM EDT on July 26, 2017 (GMT -0400)
Luray Caverns AP, Luray, VA

Weather History for KLUA - March, 2014

Change the Weather History Date:

Tuesday, March 25, 2014

  Actual Average (KSHD) Record (KSHD)
Temperature  
Mean Temperature 30 °F -  
Max Temperature 32 °F 59 °F 78 °F (2003)
Min Temperature 28 °F 35 °F 19 °F (2014)
Degree Days  
Heating Degree Days 35    
Moisture  
Dew Point 26 °F    
Average Humidity 83    
Maximum Humidity 100    
Minimum Humidity 44    
Precipitation  
Precipitation 0.01 in - - ()
Sea Level Pressure  
Sea Level Pressure 29.95 in    
Wind  
Wind Speed 3 mph (NE)    
Max Wind Speed 7 mph    
Max Gust Speed -    
Visibility 6 miles    
Events Rain , Snow    
Averages and records for this station are not official NWS values.
T = Trace of Precipitation, MM = Missing Value Source: NWS Daily Summary

Daily Weather History Graph

Daily Weather History Graph

Search for Another Location

Airport or City:

Trip Planner

Search our weather history database for the weather conditions in past years. The results will help you decide how hot, cold, wet, or windy it might be!

Date:

Astronomy

Mar. 25, 2014 Rise Set
Actual Time 7:09 AM EDT 7:30 PM EDT
Civil Twilight 6:43 AM EDT 7:57 PM EDT
Nautical Twilight 6:11 AM EDT 8:28 PM EDT
Astronomical Twilight 5:40 AM EDT 9:00 PM EDT
Moon 3:26 AM EDT (3/25) 2:02 PM EDT (3/25)
Length of Visible Light 13h 14m
Length of Day
12h 21m
Waning Crescent, 32% of the Moon is Illuminated
Mar 25
Waning Crescent
Mar 30
New
Apr 7
First Quarter
Apr 15
Full
Apr 22
Last Quarter

Hourly Weather History & Observations

Time (EDT) Temp. Windchill Dew Point Humidity Pressure Visibility Wind Dir Wind Speed Gust Speed Precip Events Conditions
12:15 AM 32.0 °F 27.5 °F 12.2 °F 44% 30.09 in 10.0 mi NE 4.6 mph - N/A   Mostly Cloudy
12:35 AM 32.0 °F 28.7 °F 12.2 °F 44% 30.09 in 10.0 mi NE 3.5 mph - N/A   Overcast
12:55 AM 32.0 °F 28.7 °F 12.2 °F 44% 30.09 in 10.0 mi NNE 3.5 mph - N/A   Overcast
1:15 AM 32.0 °F 28.7 °F 14.0 °F 48% 30.08 in 10.0 mi NNE 3.5 mph - N/A   Overcast
1:35 AM 32.0 °F - 14.0 °F 48% 30.08 in 10.0 mi Calm Calm - N/A   Overcast
1:55 AM 32.0 °F - 17.6 °F 55% 30.07 in 10.0 mi Calm Calm - N/A   Mostly Cloudy
2:15 AM 30.2 °F - 14.0 °F 51% 30.06 in 10.0 mi Calm Calm - N/A   Mostly Cloudy
2:35 AM 30.2 °F 26.7 °F 14.0 °F 51% 30.06 in 10.0 mi ENE 3.5 mph - N/A   Mostly Cloudy
2:55 AM 32.0 °F - 14.0 °F 48% 30.05 in 10.0 mi Calm Calm - N/A   Overcast
3:15 AM 32.0 °F - 17.6 °F 55% 30.04 in 10.0 mi Calm Calm - N/A   Overcast
3:35 AM 32.0 °F 28.7 °F 17.6 °F 55% 30.04 in 10.0 mi ENE 3.5 mph - N/A   Overcast
3:55 AM 32.0 °F 28.7 °F 15.8 °F 51% 30.03 in 10.0 mi SSE 3.5 mph - N/A   Overcast
4:15 AM 32.0 °F - 19.4 °F 60% 30.02 in 10.0 mi Calm Calm - N/A   Overcast
4:35 AM 32.0 °F - 19.4 °F 60% 30.01 in 10.0 mi Calm Calm - N/A   Overcast
4:55 AM 32.0 °F 27.5 °F 21.2 °F 64% 30.00 in 10.0 mi North 4.6 mph - N/A   Overcast
5:15 AM 32.0 °F 27.5 °F 19.4 °F 60% 30.00 in 10.0 mi North 4.6 mph - N/A   Overcast
5:35 AM 32.0 °F - 19.4 °F 60% 30.01 in 10.0 mi Calm Calm - N/A   Overcast
5:55 AM 30.2 °F - 21.2 °F 69% 30.00 in 10.0 mi Calm Calm - N/A   Overcast
6:15 AM 32.0 °F - 21.2 °F 64% 30.00 in 10.0 mi Calm Calm - N/A   Overcast
6:35 AM 32.0 °F 28.7 °F 21.2 °F 64% 29.99 in 10.0 mi NE 3.5 mph - N/A   Overcast
6:55 AM 32.0 °F 28.7 °F 21.2 °F 64% 29.99 in 10.0 mi NNE 3.5 mph - N/A   Overcast
7:15 AM 32.0 °F 28.7 °F 21.2 °F 64% 29.99 in 10.0 mi ENE 3.5 mph - N/A   Overcast
7:35 AM 32.0 °F 27.5 °F 21.2 °F 64% 29.99 in 10.0 mi NNE 4.6 mph - N/A   Overcast
7:55 AM 32.0 °F 27.5 °F 21.2 °F 64% 29.99 in 10.0 mi NE 4.6 mph - N/A   Overcast
8:15 AM 32.0 °F 27.5 °F 19.4 °F 60% 29.99 in 10.0 mi NNE 4.6 mph - N/A   Overcast
8:35 AM 32.0 °F 28.7 °F 23.0 °F 69% 29.99 in 4.0 mi North 3.5 mph - N/A Snow Light Snow
8:55 AM 32.0 °F 28.7 °F 26.6 °F 80% 30.00 in 2.0 mi North 3.5 mph - N/A Snow Light Snow
9:15 AM 30.2 °F 25.4 °F 28.4 °F 93% 30.00 in 1.2 mi NNW 4.6 mph - N/A Snow Light Snow
9:35 AM 30.2 °F 24.3 °F 30.2 °F 100% 30.00 in 1.0 mi NE 5.8 mph - N/A Snow Light Snow
9:55 AM 30.2 °F 26.7 °F 30.2 °F 100% 30.00 in 1.2 mi NE 3.5 mph - N/A Snow Light Snow
10:15 AM 30.2 °F 26.7 °F 30.2 °F 100% 29.99 in 0.8 mi NE 3.5 mph - N/A Snow Light Snow
10:35 AM 30.2 °F - 30.2 °F 100% 29.98 in 0.8 mi Calm Calm - N/A Snow Light Snow
10:55 AM 30.2 °F 24.3 °F 30.2 °F 100% 29.98 in 0.8 mi NNE 5.8 mph - N/A Snow Light Snow
11:15 AM 30.2 °F 25.4 °F 30.2 °F 100% 29.97 in 0.8 mi NE 4.6 mph - N/A Snow Light Snow
11:35 AM 30.2 °F 25.4 °F 30.2 °F 100% 29.96 in 0.8 mi NNE 4.6 mph - N/A Snow Light Snow
11:55 AM 30.2 °F 26.7 °F 30.2 °F 100% 29.96 in 0.5 mi NE 3.5 mph - N/A Snow Light Snow
12:15 PM 30.2 °F 26.7 °F 30.2 °F 100% 29.95 in 0.5 mi NE 3.5 mph - N/A Snow Light Snow
12:35 PM 30.2 °F - 30.2 °F 100% 29.94 in 0.5 mi Calm Calm - N/A Snow Snow
12:55 PM 32.0 °F 26.4 °F 32.0 °F 100% 29.93 in 0.8 mi NNE 5.8 mph - 0.01 in Snow Light Snow
1:15 PM 32.0 °F 28.7 °F 32.0 °F 100% 29.92 in 1.0 mi NE 3.5 mph - N/A Snow Light Snow
1:35 PM 32.0 °F 27.5 °F 32.0 °F 100% 29.91 in 0.8 mi NE 4.6 mph - N/A Snow Light Snow
1:55 PM 32.0 °F 27.5 °F 32.0 °F 100% 29.90 in 1.0 mi NE 4.6 mph - N/A Snow Light Snow
2:15 PM 32.0 °F 27.5 °F 32.0 °F 100% 29.89 in 0.8 mi NE 4.6 mph - N/A Snow Light Snow
2:35 PM 32.0 °F 25.6 °F 32.0 °F 100% 29.87 in 1.0 mi NE 6.9 mph - N/A Snow Light Snow
2:55 PM 32.0 °F 26.4 °F 32.0 °F 100% 29.86 in 1.0 mi NE 5.8 mph - N/A Snow Light Snow
3:15 PM 32.0 °F 26.4 °F 32.0 °F 100% 29.85 in 1.0 mi NE 5.8 mph - N/A Snow Light Snow
3:35 PM 32.0 °F 26.4 °F 32.0 °F 100% 29.85 in 1.2 mi NE 5.8 mph - N/A Snow Light Snow
3:55 PM 32.0 °F 25.6 °F 32.0 °F 100% 29.84 in 1.2 mi NNE 6.9 mph - N/A Snow Light Snow
4:15 PM 32.0 °F 25.6 °F 32.0 °F 100% 29.84 in 1.0 mi NNE 6.9 mph - N/A Snow Light Snow
4:35 PM 32.0 °F 25.6 °F 32.0 °F 100% 29.84 in 1.2 mi NNE 6.9 mph - N/A Snow Light Snow
4:55 PM 32.0 °F 25.6 °F 32.0 °F 100% 29.84 in 1.2 mi NE 6.9 mph - N/A Snow Light Snow
5:15 PM 32.0 °F 26.4 °F 32.0 °F 100% 29.84 in 3.0 mi NNE 5.8 mph - N/A Snow Light Snow
5:35 PM 32.0 °F 26.4 °F 32.0 °F 100% 29.84 in 3.0 mi NE 5.8 mph - N/A Snow Light Snow
5:55 PM 32.0 °F 28.7 °F 32.0 °F 100% 29.85 in 10.0 mi NE 3.5 mph - N/A Rain Light Rain
6:15 PM 32.0 °F 28.7 °F 32.0 °F 100% 29.85 in 10.0 mi ENE 3.5 mph - N/A Rain Light Rain
6:35 PM 32.0 °F - 32.0 °F 100% 29.85 in 10.0 mi Calm Calm - N/A   Overcast
6:55 PM 32.0 °F 28.7 °F 32.0 °F 100% 29.86 in 10.0 mi NE 3.5 mph - N/A   Overcast
7:15 PM 32.0 °F 28.7 °F 32.0 °F 100% 29.86 in 10.0 mi NE 3.5 mph - N/A   Overcast
7:35 PM 32.0 °F - 32.0 °F 100% 29.87 in 10.0 mi Calm Calm - N/A   Overcast
7:55 PM 32.0 °F - 32.0 °F 100% 29.87 in 10.0 mi Calm Calm - N/A   Overcast
8:15 PM 32.0 °F - 32.0 °F 100% 29.87 in 10.0 mi Calm Calm - N/A   Overcast
8:35 PM 32.0 °F - 32.0 °F 100% 29.88 in 10.0 mi Calm Calm - N/A   Overcast
8:55 PM 30.2 °F - 30.2 °F 100% 29.88 in 10.0 mi Calm Calm - N/A Snow Light Snow
9:15 PM 32.0 °F - 32.0 °F 100% 29.88 in 10.0 mi Calm Calm - N/A   Mostly Cloudy
9:35 PM 30.2 °F - 30.2 °F 100% 29.89 in 10.0 mi Calm Calm - N/A   Mostly Cloudy
9:55 PM 30.2 °F 26.7 °F 30.2 °F 100% 29.89 in 10.0 mi SE 3.5 mph - N/A   Scattered Clouds
10:15 PM 30.2 °F 25.4 °F 30.2 °F 100% 29.89 in 10.0 mi South 4.6 mph - N/A   Clear
10:35 PM 28.4 °F 24.6 °F 28.4 °F 100% 29.89 in 7.0 mi South 3.5 mph - N/A   Clear
10:55 PM 30.2 °F 24.3 °F 30.2 °F 100% 29.89 in 10.0 mi SSE 5.8 mph - N/A   Clear
11:15 PM 30.2 °F - 28.4 °F 93% 29.89 in 10.0 mi Calm Calm - N/A   Clear
11:35 PM 32.0 °F 25.6 °F 26.6 °F 80% 29.89 in 10.0 mi WNW 6.9 mph - N/A   Clear
11:55 PM 32.0 °F 25.6 °F 24.8 °F 75% 29.89 in 10.0 mi NW 6.9 mph - N/A   Clear